Track STARLINK-3750 now! 10-day predictions STARLINK-3750 is classified as:
1 52311U 22041BC 22187.58334491 -.01047999 00000-0 -11563-1 0 9996 2 52311 53.2175 359.2585 0001389 54.9503 97.6645 15.65228026 1309